www.pogodaiklimat.ru

АРХИВ ПОГОДЫ в Ростове-на-Дону

Время (UTC), дата Ветер
(напр.,м/с)
 
Видим.   Явления Облачность Т
(С)
Тd
(С)
f
(%)
Тe
(С)
Тes
(С)
Комфортность P
(гПа)
Po
(гПа)
Тmin
(С)
Tmax
(С)
R
(мм)
S
(см)
18 22.07 ЮЗ 2
{13}
8000 м слабый ливневой дождь, в посл. час гроза 9/5 1380 м
[Cb cap Ac trans]
+20.5 +16.5 78 +24 +24 комфорт 1011.0 1002.4
21 22.07 ЮЗ 4
{12}
5000 м гроза, ливневой дождь 10/8 1300 м
[Cb cap Ac und]
+17.7 +16.0 90 +17 +17 холодно 1010.8 1002.1
00 23.07 З 2
{12}
8000 м {гроза, ливн. осадки} 9/5 1350 м
[Cb calv Ac trans]
+18.2 +16.7 91 +19 +19 по сезону 1010.2 1001.5
03 23.07 З 2 10 км 8/3
[Cb calv Ac trans]
+17.3 +13.4 78 +18 +18 прохладно 1010.0 1001.3 +17.2 13
06 23.07 З 4 10 км 4/3
[Cu hum Ac trans]
+19.2 +13.9 71 +20 +25 холодно 1010.4 1001.7
09 23.07 З 4 10 км 6/4
[Cu med, cong Ac trans]
+22.3 +13.7 58 +25 +31 комфорт 1009.9 1001.3
12 23.07 З 6
{10}
10 км 5/4
[Cu med, cong Ac trans Ci fib]
+24.3 +13.2 50 +26 +29 жарко 1009.6 1001.1
15 23.07 З 6
{11}
10 км 4/1
[Cu hum Ac trans Ci fib]
+24.3 +14.6 55 +27 +28 жарко 1008.6 1000.1 +24.8
18 23.07 ЮЗ 5
{12}
8000 м 9/4
[Cb calv Ac trans]
+22.4 +15.9 67 +27 +27 душно 1008.6 1000.0
21 23.07 ЮЗ 4
{13}
8000 м гроза без осадков 9/4
[Cb cap Ac trans]
+17.9 +17.3 96 +18 +18 прохладно 1007.4 998.7
00 24.07 ЮЗ 3
{13}
8000 м {гроза} 9/1
[Cb calv Ac trans]
+16.9 +16.1 95 +17 +17 прохладно 1006.2 997.5
03 24.07 ЮЗ 3 10 км слабый ливневой дождь 9/3
[Cb calv Ac trans]
+18.2 +15.8 86 +19 +19 прохладно 1005.0 996.3 +15.5 29
06 24.07 З 4 10 км {ливн. осадки} 9/3
[Cb calv Ac trans]
+19.8 +14.9 73 +22 +24 комфорт 1004.6 996.0
09 24.07 З 5
{11}
10 км 9/3
[Cb calv Ac trans]
+22.8 +14.4 59 +26 +29 жарко 1004.3 995.8
12 24.07 СЗ 5
{11}
10 км {ливн. осадки} 9/3 600 м
[Cb calv Ac trans]
+20.5 +15.2 72 +23 +25 комфорт 1005.6 997.0
15 24.07 З 4 10 км 9/4
[Cb calv Ac trans]
+22.8 +15.2 62 +27 +27 душно 1005.4 996.9 +23.1 0.3
18 24.07 СЗ 2 8000 м {ливн. осадки} 8/3
[Cb calv Ac trans]
+20.3 +15.5 74 +24 +24 комфорт 1006.8 998.2
21 24.07 СЗ 3 7000 м дымка 6/1
[Cb calv Ac trans]
+18.3 +16.3 88 +19 +19 прохладно 1007.5 998.8
00 25.07 С 4 7000 м дымка 3/0
[Ac trans]
+17.1 +15.3 89 +17 +17 прохладно 1008.3 999.6
03 25.07 С 4 7000 м дымка 3/0
[Ac trans Ci fib]
+17.2 +15.4 89 +17 +17 холодно 1009.6 1000.9 +16.7 0.0
06 25.07 С 5 10 км ясно +22.3 +16.8 71 +27 +32 душно 1010.5 1001.9
09 25.07 С 4
{11}
10 км 4/4
[Cu med, cong]
+25.7 +15.3 53 +29 +36 душно 1010.6 1002.1
12 25.07 С 3
{11}
10 км {ливн. осадки} 9/4
[Cb calv Ac trans]
+26.2 +15.9 53 +29 +32 жарко 1010.8 1002.3
15 25.07 С 2
{10}
10 км в посл. час ливневой дождь 8/3
[Cb calv Ac trans]
+25.3 +15.5 55 +28 +29 жарко 1011.6 1003.1 +27.5 0.4
18 25.07 С 2 8000 м {ливн. осадки} 5/0
[Ac trans]
+22.4 +16.2 68 +27 +27 душно 1013.1 1004.5
21 25.07 С 2 8000 м 5/0
[Ac trans Ci fib]
+20.0 +16.2 79 +23 +23 комфорт 1013.1 1004.4
00 26.07 З 1 8000 м 4/0
[Ac trans Ci fib]
+18.5 +14.8 79 +20 +20 по сезону 1013.1 1004.4
03 26.07 С 3 10 км ясно +19.2 +15.6 80 +21 +22 комфорт 1013.8 1005.1 +18.3
06 26.07 В 3 10 км ясно +23.1 +16.6 67 +28 +36 душно 1014.3 1005.7
09 26.07 СВ 3 5000 м мгла 3/3
[Cu hum]
+26.5 +16.2 53 +30 +40 душно 1014.0 1005.5
12 26.07 С 3 4800 м мгла 4/4
[Cu hum]
+28.6 +14.6 42 +31 +37 жарко 1013.4 1005.0
15 26.07 В 4 7000 м мгла 3/0
[Ac trans]
+27.7 +14.7 45 +30 +31 жарко 1013.2 1004.7 +29.0
18 26.07 СВ 3 7000 м мгла 3/0
[Ac trans]
+23.0 +15.0 61 +27 +27 душно 1014.3 1005.7
21 26.07 С 3 7000 м мгла 3/0
[Ac trans]
+21.1 +15.6 71 +24 +24 комфорт 1014.3 1005.6
00 27.07 С 4 8000 м 3/0
[Ac trans]
+21.3 +14.6 66 +24 +24 комфорт 1014.3 1005.6
03 27.07 СВ 3 10 км ясно +20.1 +15.1 73 +23 +23 комфорт 1014.8 1006.1 +18.4
06 27.07 СВ 4 4000 м мгла 1/0
[Ac trans]
+25.4 +17.1 60 +29 +35 душно 1015.0 1006.5
09 27.07 В 5 8000 м мгла 3/3
[Cu med, cong]
+28.6 +16.8 49 +32 +39 душно 1014.6 1006.2
12 27.07 В 5
{10}
10 км 3/3
[Cu med, cong]
+29.6 +14.5 40 +32 +36 душно 1014.1 1005.7
15 27.07 В 2 10 км 1/0
[Ac trans]
+28.8 +14.9 43 +31 +33 жарко 1013.6 1005.2 +30.1
18 27.07 С 4 8000 м ясно +25.9 +10.3 37 +27 +27 жарко 1014.1 1005.6
21 27.07 С 3 8000 м ясно +21.4 +12.5 57 +24 +24 комфорт 1014.5 1005.8
00 28.07 СВ 3 8000 м мгла ясно +19.8 +13.2 66 +22 +22 комфорт 1014.7 1006.0
03 28.07 СВ 3 7000 м мгла ясно +20.1 +14.5 70 +23 +23 комфорт 1014.9 1006.2 +18.5
06 28.07 В 4 7000 м мгла ясно +25.2 +17.0 60 +29 +35 душно 1015.2 1006.7
09 28.07 В 4 7000 м мгла ясно +29.3 +16.3 45 +32 +44 душно 1014.9 1006.5
12 28.07 В 4 8000 м мгла 3/3
[Cu med, cong]
+30.4 +13.9 37 +32 +38 жарко 1014.2 1005.8
15 28.07 В 3 8000 м мгла 1/0
[Ac trans]
+29.5 +14.5 40 +32 +33 душно 1013.5 1005.1 +30.7
18 28.07 СВ 1 6000 м мгла 1/0
[Ac trans]
+26.1 +13.8 47 +28 +28 жарко 1014.2 1005.7
21 28.07 СВ 2 8000 м мгла 1/0
[Ac trans]
+22.3 +14.0 59 +25 +25 комфорт 1014.5 1005.9
00 29.07 В 1 8000 м 1/0
[Ac trans]
+21.8 +12.2 54 +24 +24 комфорт 1014.1 1005.5
03 29.07 З 1 7000 м мгла ясно +20.3 +13.6 65 +24 +24 комфорт 1014.6 1005.9 +20.0
06 29.07 СВ 2 6000 м мгла ясно +27.9 +14.5 44 +30 +39 жарко 1014.6 1006.1
09 29.07 В 3 10 км ясно +30.8 +12.7 33 +32 +46 жарко 1013.8 1005.4
12 29.07 ЮВ 3 10 км 3/3
[Cu med, cong]
+31.7 +10.4 27 +31 +38 жарко 1012.2 1003.8
15 29.07 С 6
{12}
10 км 6/3
[Cb calv Ac trans Ci fib]
+26.6 +15.4 50 +29 +30 жарко 1012.5 1004.0 +32.0

 

Местоположение метеостанции Ростов-на-Дону (Ростовская область, Россия): широта 47.27 долгота 39.82 высота над уровнем моря 75 м.

В архиве по умолчанию представлена погода в Ростове-на-Дону за последнюю неделю. Архивные данные за месяц целиком и за предыдущие месяцы, начиная с января 2011 года, Вы можете получить, выбрав интересующий диапазон дат из раскрывающегося списка и нажав кнопку "Ввод!".

Внимание! Время в таблицах - всемирное. Для получения местного времени необходимо прибавить поправку, которая в Ростове-на-Дону равна 3 ч.

Ветер - указаны скорость ветра в м/с - средняя за 10 мин, порывы в срок и между сроками (в фигурных скобках) и направление, откуда дует ветер: С - северный, СВ - северо-восточный, В - восточный, ЮВ - юго-восточный, Ю - южный, ЮЗ - юго-западный, З - западный, СЗ - северо-западный.
Видимость - горизонтальная дальность видимости в метрах или километрах. При видимости от 1 до 10 км при отсутствии осадков обычно наблюдается дымка, при ухудшении видимости до 1 км и менее - туман. В сухую погоду видимость может ухудшаться дымом, пылью или мглою.
Явления - указаны атмосферные явления, наблюдавшиеся в срок или в последний час перед сроком; фигурными скобками обозначены явления, наблюдавшиеся между сроками (за 1-3 часа до срока); квадратными скобками обозначены град или гололедные отложения с указанием их диаметра в мм.
Облачность - указаны через наклонную черту общая и нижняя облачность в баллах и высота нижней границы облаков в метрах; квадратными скобками обозначены формы облаков: Ci - перистые, Cs - перисто-слоистые, Cc - перисто-кучевые, Ac - высококучевые, As - высокослоистые, Sc - слоисто-кучевые, Ns - слоисто-дождевые, Cu - кучевые, Cb - кучево-дождевые. Подробнее классификацию облаков см. в Атласе облаков (PDF).
T - Температура воздуха - температура, измеренная на высоте 2 м над землей.
Td - Температура точки росы - температура, при понижении до которой содержащийся в воздухе водяной пар достигнет насыщения.
f - Относительная влажность воздуха - влажноcть воздуха, измеренная на высоте 2 м над землей.
Te - Эффективная температура - температура, которую ощущает одетый по сезону человек в тени. Характеристика душности погоды. При расчете учитывается влияние влажности воздуха и скорости ветра на теплоощущения человека.
Tes - Эффективная температура на солнце - температура, которую ощущает человек, с поправкой на солнечный нагрев. Характеристика знойности погоды. Зависит от высоты солнца над горизонтом, облачности и скорости ветра. Ночью, в пасмурную погоду, а также при ветре 12 м/с и более поправка равна нулю.
P - Атмосферное давление - приведенное к уровню моря атмосферное давление.
Po - Атмосферное давление - измеренное на уровне метеостанции атмосферное давление.
Tmin - Минимальная температура - минимум температуры воздуха на высоте 2 м над землей.
Tmax - Максимальная температура - максимум температуры воздуха на высоте 2 м над землей.
R - Количество осадков - Количество выпавших осадков, мм. При наведении курсора мыши на число - период времени, за который выпало указанное количество осадков.
S - Снежный покров - Высота снежного покрова, см. При наведении курсора мыши на число - состояние снежного покрова и степень покрытия местности в баллах.